Location: Possagno
(45.8500°N, 11.8667°E)
Time: 02:40:44
(UTC+00:00)

Cosmos 1844 Rocket - Pass Details

Date: 07 June 2020
Orbit: 826 x 843 km, 71.0° (Epoch: 06 July)

Event Time Altitude Azimuth Distance (km) Brightness Sun altitude
Rises 01:58:19 0° 334° (NNW) 3,389 6.2 -11.6°
Reaches altitude 10° 02:00:46 10° 335° (NNW) 2,449 5.5 -11.4°
Maximum altitude 02:06:24 80° 63° (ENE) 846 2.8 -10.7°
Drops below altitude 10° 02:11:58 10° 151° (SSE) 2,423 4.9 -10.1°
Sets 02:14:23 0° 153° (SSE) 3,351 5.6 -9.8°
